This is the latest recevied weather packets stored in our database for station/object KA3BQE-13. If no packets are shown the sender has not sent any weather packets the latest 10 day(s).
| Time | Temp. | Humidity | Pressure | Rain* | Wind** | Luminosity | Snow |
|---|---|---|---|---|---|---|---|
| 1777666005 | 11.67° C | 60% | 1018.8 hPa | 0 mm | - | 137 W/m² | - |
| 1777665703 | 12.22° C | 60% | 1018.7 hPa | 0 mm | - | 183 W/m² | - |
| 1777665400 | 12.22° C | 60% | 1018.7 hPa | 0 mm | - | 247 W/m² | - |
| 1777665096 | 12.22° C | 59% | 1018.8 hPa | 0 mm | - | 272 W/m² | - |
| 1777664792 | 11.67° C | 53% | 1018.9 hPa | 0 mm | - | 272 W/m² | - |
| 1777664487 | 12.22° C | 53% | 1018.7 hPa | 0 mm | - | 224 W/m² | - |
| 1777664185 | 12.22° C | 59% | 1018.9 hPa | 0 mm | - | 246 W/m² | - |
| 1777663884 | 11.67° C | 55% | 1018.9 hPa | 0 mm | - | 188 W/m² | - |
| 1777663580 | 11.67° C | 59% | 1018.9 hPa | 0 mm | - | 154 W/m² | - |
| 1777663277 | 12.22° C | 58% | 1018.8 hPa | 0 mm | - | 161 W/m² | - |
| 1777662975 | 12.22° C | 58% | 1018.7 hPa | 0 mm | - | 127 W/m² | - |
| 1777662672 | 12.78° C | 53% | 1018.7 hPa | 0 mm | - | 232 W/m² | - |
| 1777662368 | 13.33° C | 57% | 1018.8 hPa | 0 mm | - | 732 W/m² | - |
| 1777662063 | 13.33° C | 55% | 1018.8 hPa | 0 mm | - | 878 W/m² | - |
| 1777661759 | 13.33° C | 53% | 1019 hPa | 0 mm | - | 849 W/m² | - |
| 1777661455 | 12.78° C | 60% | 1018.9 hPa | 0 mm | - | 929 W/m² | - |
| 1777661151 | 12.22° C | 57% | 1019.1 hPa | 0 mm | - | 290 W/m² | - |
| 1777660847 | 12.78° C | 63% | 1018.9 hPa | 0 mm | - | 421 W/m² | - |
| 1777660544 | 13.33° C | 61% | 1018.8 hPa | 0 mm | - | 317 W/m² | - |
| 1777660240 | 13.33° C | 56% | 1018.8 hPa | 0 mm | - | 1089 W/m² | - |
| 1777659937 | 12.78° C | 63% | 1018.8 hPa | 0 mm | - | 584 W/m² | - |
| 1777659634 | 11.11° C | 60% | 1018.7 hPa | 0 mm | - | 321 W/m² | - |
| 1777659331 | 11.11° C | 60% | 1018.9 hPa | 0 mm | - | 257 W/m² | - |
| 1777659028 | 11.11° C | 62% | 1018.7 hPa | 0 mm | - | 239 W/m² | - |
| 1777658726 | 11.11° C | 61% | 1018.7 hPa | 0 mm | - | 185 W/m² | - |
* Rain latest hour (hover to see other rain measurements)
** Current wind speed in m/s (hover to see current wind gust speed)